PUA1497 SAZS-SAZR

Flight info

Callsign PUA1497
Flight time 2h 44m
Altitude 9000
Route LIMAY Z109 ISMIL T655 ENRIL T661 OSA
Aircraft C182/L-SDGRY/S

Departure

Time 2026-04-22 10:41
Airport Teniente Luis Candelaria International Airport (SAZS)

Arrival

Time 2026-04-22 13:25
Airport Santa Rosa Airport (SAZR)
Time Latitude Longitude Altitude Speed Heading
2026-04-22 10:23 -41.14714 -71.16328 2743 ft 0 kts 180°
2026-04-22 10:26 -41.14705 -71.16331 2742 ft 2 kts 154°
2026-04-22 10:27 -41.14700 -71.16335 2743 ft 0 kts 137°
2026-04-22 10:30 -41.14724 -71.16321 2743 ft 8 kts 147°
2026-04-22 10:30 -41.14751 -71.16290 2743 ft 7 kts 138°
2026-04-22 10:31 -41.14768 -71.16265 2743 ft 7 kts 125°
2026-04-22 10:31 -41.14797 -71.16207 2743 ft 9 kts 114°
2026-04-22 10:31 -41.14806 -71.16187 2743 ft 9 kts 129°
2026-04-22 10:32 -41.14824 -71.16171 2743 ft 9 kts 156°
2026-04-22 10:32 -41.14825 -71.16170 2743 ft 9 kts 158°
2026-04-22 10:32 -41.14847 -71.16106 2743 ft 8 kts 99°
2026-04-22 10:33 -41.14864 -71.16020 2743 ft 11 kts 109°
2026-04-22 10:33 -41.14894 -71.15926 2743 ft 12 kts 116°
2026-04-22 10:33 -41.14934 -71.15825 2743 ft 13 kts 124°
2026-04-22 10:33 -41.14976 -71.15713 2743 ft 14 kts 116°
2026-04-22 10:34 -41.15015 -71.15587 2743 ft 15 kts 113°
2026-04-22 10:34 -41.15061 -71.15452 2743 ft 17 kts 117°
2026-04-22 10:34 -41.15113 -71.15309 2743 ft 17 kts 116°
2026-04-22 10:34 -41.15148 -71.15196 2743 ft 11 kts 110°
2026-04-22 10:35 -41.15176 -71.15110 2743 ft 9 kts 114°
2026-04-22 10:35 -41.15198 -71.15048 2743 ft 6 kts 117°
2026-04-22 10:35 -41.15223 -71.14985 2743 ft 10 kts 127°
2026-04-22 10:35 -41.15262 -71.14880 2744 ft 16 kts 112°
2026-04-22 10:36 -41.15303 -71.14748 2744 ft 16 kts 113°
2026-04-22 10:36 -41.15344 -71.14627 2744 ft 13 kts 115°
2026-04-22 10:36 -41.15352 -71.14598 2744 ft 8 kts 96°
2026-04-22 10:37 -41.15376 -71.14565 2744 ft 4 kts 124°
2026-04-22 10:37 -41.15467 -71.14481 2746 ft 14 kts 204°
2026-04-22 10:37 -41.15529 -71.14534 2752 ft 12 kts 233°
2026-04-22 10:38 -41.15537 -71.14611 2752 ft 9 kts 289°
2026-04-22 10:38 -41.15522 -71.14651 2752 ft 0 kts 294°
2026-04-22 10:40 -41.15516 -71.14670 2752 ft 13 kts 294°
2026-04-22 10:40 -41.15420 -71.14948 2752 ft 53 kts 296°
2026-04-22 10:40 -41.15218 -71.15496 2850 ft 69 kts 297°
2026-04-22 10:40 -41.15005 -71.16033 3052 ft 70 kts 297°
2026-04-22 10:41 -41.14748 -71.16615 3184 ft 74 kts 300°
2026-04-22 10:41 -41.14514 -71.17186 3383 ft 69 kts 291°
2026-04-22 10:41 -41.14352 -71.17786 3499 ft 74 kts 292°
2026-04-22 10:41 -41.14157 -71.18468 3610 ft 83 kts 293°
2026-04-22 10:42 -41.13922 -71.19207 3746 ft 90 kts 292°
2026-04-22 10:42 -41.13673 -71.19995 3859 ft 95 kts 294°
2026-04-22 10:42 -41.13403 -71.20819 3988 ft 100 kts 295°
2026-04-22 10:42 -41.13114 -71.21686 4124 ft 105 kts 295°
2026-04-22 10:43 -41.12813 -71.22585 4267 ft 108 kts 294°
2026-04-22 10:43 -41.12500 -71.23513 4408 ft 111 kts 294°
2026-04-22 10:43 -41.12186 -71.24443 4544 ft 113 kts 293°
2026-04-22 10:43 -41.11862 -71.25396 4680 ft 114 kts 294°
2026-04-22 10:44 -41.11536 -71.26358 4812 ft 114 kts 294°
2026-04-22 10:44 -41.11211 -71.27315 4940 ft 114 kts 293°
2026-04-22 10:44 -41.10884 -71.28279 5066 ft 115 kts 293°
2026-04-22 10:44 -41.10553 -71.29251 5197 ft 116 kts 293°
2026-04-22 10:45 -41.10218 -71.30235 5325 ft 118 kts 293°
2026-04-22 10:45 -41.09881 -71.31225 5451 ft 118 kts 293°
2026-04-22 10:45 -41.09544 -71.32215 5580 ft 117 kts 293°
2026-04-22 10:45 -41.09210 -71.33196 5732 ft 116 kts 293°
2026-04-22 10:46 -41.08884 -71.34157 5881 ft 115 kts 293°
2026-04-22 10:46 -41.08554 -71.35116 6033 ft 114 kts 294°
2026-04-22 10:46 -41.07954 -71.35792 6175 ft 121 kts 339°
2026-04-22 10:46 -41.07110 -71.35601 6322 ft 132 kts 28°
2026-04-22 10:47 -41.06501 -71.34678 6477 ft 135 kts 52°
2026-04-22 10:47 -41.05938 -71.33685 6625 ft 134 kts 49°
2026-04-22 10:47 -41.05358 -71.32713 6774 ft 135 kts 48°
2026-04-22 10:47 -41.04768 -71.31737 6920 ft 136 kts 48°
2026-04-22 10:48 -41.04173 -71.30760 7072 ft 137 kts 48°
2026-04-22 10:48 -41.03574 -71.29777 7218 ft 137 kts 48°
2026-04-22 10:48 -41.02973 -71.28792 7369 ft 138 kts 48°
2026-04-22 10:48 -41.02370 -71.27804 7511 ft 138 kts 48°
2026-04-22 10:49 -41.01770 -71.26820 7661 ft 136 kts 48°
2026-04-22 10:49 -41.01205 -71.25814 7805 ft 137 kts 59°
2026-04-22 10:49 -41.00765 -71.24710 7955 ft 136 kts 59°
2026-04-22 10:49 -41.00309 -71.23620 8106 ft 135 kts 59°
2026-04-22 10:50 -40.99855 -71.22523 8258 ft 137 kts 59°
2026-04-22 10:50 -40.99397 -71.21413 8414 ft 138 kts 59°
2026-04-22 10:50 -40.98938 -71.20301 8562 ft 137 kts 59°
2026-04-22 10:50 -40.98484 -71.19203 8715 ft 135 kts 59°
2026-04-22 10:51 -40.98032 -71.18108 8874 ft 135 kts 60°
2026-04-22 10:51 -40.97581 -71.17015 9017 ft 135 kts 60°
2026-04-22 10:51 -40.97132 -71.15932 9101 ft 139 kts 60°
2026-04-22 10:51 -40.96654 -71.14776 9110 ft 147 kts 60°
2026-04-22 10:52 -40.96152 -71.13562 9112 ft 154 kts 60°
2026-04-22 10:52 -40.95632 -71.12302 9108 ft 158 kts 60°
2026-04-22 10:52 -40.95103 -71.11021 9113 ft 158 kts 60°
2026-04-22 10:52 -40.94574 -71.09743 9112 ft 159 kts 60°
2026-04-22 10:53 -40.94040 -71.08455 9106 ft 159 kts 60°
2026-04-22 10:53 -40.93515 -71.07190 9104 ft 159 kts 60°
2026-04-22 10:53 -40.92984 -71.05909 9107 ft 158 kts 60°
2026-04-22 10:53 -40.92453 -71.04630 9106 ft 160 kts 60°
2026-04-22 10:54 -40.91919 -71.03343 9103 ft 159 kts 60°
2026-04-22 10:54 -40.91381 -71.02049 9108 ft 161 kts 60°
2026-04-22 10:54 -40.90839 -71.00745 9112 ft 163 kts 60°
2026-04-22 10:54 -40.90291 -70.99425 9109 ft 164 kts 60°
2026-04-22 10:55 -40.89742 -70.98103 9113 ft 164 kts 60°
2026-04-22 10:55 -40.89192 -70.96782 9101 ft 164 kts 60°
2026-04-22 10:55 -40.88644 -70.95467 9102 ft 164 kts 60°
2026-04-22 10:55 -40.88096 -70.94152 9101 ft 164 kts 60°
2026-04-22 10:56 -40.87546 -70.92831 9100 ft 163 kts 60°
2026-04-22 10:56 -40.87004 -70.91530 9100 ft 161 kts 60°
2026-04-22 10:56 -40.86462 -70.90230 9099 ft 162 kts 60°
2026-04-22 10:56 -40.85922 -70.88936 9100 ft 161 kts 60°
2026-04-22 10:57 -40.85380 -70.87638 9102 ft 162 kts 60°
2026-04-22 10:57 -40.84836 -70.86336 9099 ft 163 kts 60°
2026-04-22 10:57 -40.84289 -70.85025 9100 ft 162 kts 60°
2026-04-22 10:57 -40.83746 -70.83725 9105 ft 162 kts 60°
2026-04-22 10:58 -40.83199 -70.82417 9105 ft 163 kts 60°
2026-04-22 10:58 -40.82653 -70.81111 9106 ft 162 kts 60°
2026-04-22 10:58 -40.82106 -70.79804 9104 ft 163 kts 60°
2026-04-22 10:58 -40.81743 -70.78938 9104 ft 163 kts 60°
2026-04-22 10:59 -40.81009 -70.77185 9107 ft 163 kts 60°
2026-04-22 10:59 -40.80646 -70.76318 9106 ft 162 kts 60°
2026-04-22 10:59 -40.79919 -70.74585 9112 ft 162 kts 60°
2026-04-22 10:59 -40.79558 -70.73723 9107 ft 162 kts 60°
2026-04-22 11:00 -40.79015 -70.72428 9110 ft 161 kts 60°
2026-04-22 11:00 -40.78472 -70.71136 9112 ft 161 kts 60°
2026-04-22 11:00 -40.77931 -70.69846 9109 ft 160 kts 60°
2026-04-22 11:00 -40.77390 -70.68556 9113 ft 161 kts 60°
2026-04-22 11:01 -40.76846 -70.67261 9114 ft 162 kts 60°
2026-04-22 11:01 -40.76299 -70.65962 9115 ft 162 kts 60°
2026-04-22 11:01 -40.75752 -70.64661 9115 ft 162 kts 60°
2026-04-22 11:01 -40.75203 -70.63357 9112 ft 163 kts 60°
2026-04-22 11:02 -40.74649 -70.62058 9114 ft 162 kts 58°
2026-04-22 11:02 -40.73921 -70.60933 9117 ft 161 kts 45°
2026-04-22 11:02 -40.73163 -70.59879 9116 ft 160 kts 45°
2026-04-22 11:02 -40.72410 -70.58808 9125 ft 160 kts 46°
2026-04-22 11:03 -40.71654 -70.57726 9125 ft 160 kts 46°
2026-04-22 11:03 -40.70897 -70.56643 9124 ft 161 kts 46°
2026-04-22 11:03 -40.70140 -70.55563 9122 ft 161 kts 46°
2026-04-22 11:03 -40.69382 -70.54478 9126 ft 161 kts 46°
2026-04-22 11:04 -40.68624 -70.53396 9124 ft 161 kts 46°
2026-04-22 11:04 -40.67864 -70.52312 9127 ft 161 kts 46°
2026-04-22 11:04 -40.67105 -70.51228 9130 ft 161 kts 46°
2026-04-22 11:04 -40.66346 -70.50145 9125 ft 161 kts 46°
2026-04-22 11:05 -40.65589 -70.49065 9124 ft 161 kts 46°
2026-04-22 11:05 -40.64832 -70.47985 9129 ft 161 kts 46°
2026-04-22 11:05 -40.64072 -70.46903 9132 ft 160 kts 46°
2026-04-22 11:05 -40.63316 -70.45828 9135 ft 160 kts 46°
2026-04-22 11:06 -40.62574 -70.44770 9128 ft 160 kts 46°
2026-04-22 11:06 -40.61817 -70.43693 9135 ft 160 kts 46°
2026-04-22 11:06 -40.61060 -70.42614 9128 ft 161 kts 46°
2026-04-22 11:06 -40.60304 -70.41529 9141 ft 161 kts 47°
2026-04-22 11:07 -40.59643 -70.40339 9131 ft 161 kts 52°
2026-04-22 11:07 -40.58963 -70.39165 9129 ft 161 kts 51°
2026-04-22 11:07 -40.58288 -70.37992 9133 ft 160 kts 52°
2026-04-22 11:07 -40.57617 -70.36818 9139 ft 161 kts 52°
2026-04-22 11:08 -40.56943 -70.35635 9132 ft 162 kts 52°
2026-04-22 11:08 -40.56271 -70.34455 9136 ft 162 kts 52°
2026-04-22 11:08 -40.55594 -70.33267 9138 ft 162 kts 52°
2026-04-22 11:08 -40.54916 -70.32079 9135 ft 162 kts 52°
2026-04-22 11:09 -40.54238 -70.30892 9132 ft 162 kts 52°
2026-04-22 11:09 -40.53558 -70.29700 9135 ft 162 kts 52°
2026-04-22 11:09 -40.52881 -70.28515 9135 ft 162 kts 52°
2026-04-22 11:09 -40.52209 -70.27339 9133 ft 163 kts 52°
2026-04-22 11:10 -40.51530 -70.26152 9134 ft 162 kts 52°
2026-04-22 11:10 -40.50853 -70.24968 9140 ft 162 kts 52°
2026-04-22 11:10 -40.50175 -70.23783 9138 ft 162 kts 52°
2026-04-22 11:10 -40.49498 -70.22600 9133 ft 162 kts 52°
2026-04-22 11:11 -40.48821 -70.21417 9135 ft 162 kts 52°
2026-04-22 11:11 -40.48143 -70.20234 9139 ft 162 kts 52°
2026-04-22 11:11 -40.47464 -70.19047 9135 ft 163 kts 52°
2026-04-22 11:11 -40.46783 -70.17859 9133 ft 163 kts 52°
2026-04-22 11:12 -40.46104 -70.16675 9136 ft 162 kts 52°
2026-04-22 11:12 -40.45425 -70.15491 9142 ft 163 kts 52°
2026-04-22 11:12 -40.44744 -70.14305 9138 ft 163 kts 52°
2026-04-22 11:12 -40.44058 -70.13110 9139 ft 163 kts 52°
2026-04-22 11:13 -40.43376 -70.11922 9134 ft 163 kts 52°
2026-04-22 11:13 -40.42697 -70.10740 9141 ft 162 kts 52°
2026-04-22 11:13 -40.42016 -70.09556 9141 ft 163 kts 52°
2026-04-22 11:13 -40.41333 -70.08367 9140 ft 163 kts 52°
2026-04-22 11:14 -40.40658 -70.07193 9138 ft 163 kts 52°
2026-04-22 11:14 -40.39965 -70.05988 9142 ft 163 kts 52°
2026-04-22 11:14 -40.39288 -70.04813 9142 ft 164 kts 51°
2026-04-22 11:14 -40.38598 -70.03615 9146 ft 164 kts 52°
2026-04-22 11:15 -40.37910 -70.02418 9147 ft 165 kts 51°
2026-04-22 11:15 -40.37219 -70.01220 9142 ft 165 kts 51°
2026-04-22 11:15 -40.36527 -70.00021 9142 ft 164 kts 51°
2026-04-22 11:15 -40.35838 -69.98826 9143 ft 164 kts 51°
2026-04-22 11:16 -40.35146 -69.97627 9142 ft 165 kts 51°
2026-04-22 11:16 -40.34453 -69.96426 9144 ft 166 kts 51°
2026-04-22 11:16 -40.33760 -69.95228 9151 ft 164 kts 51°
2026-04-22 11:16 -40.33071 -69.94034 9144 ft 163 kts 51°
2026-04-22 11:17 -40.32385 -69.92846 9150 ft 164 kts 51°
2026-04-22 11:17 -40.31695 -69.91654 9151 ft 165 kts 51°
2026-04-22 11:17 -40.31000 -69.90452 9150 ft 166 kts 51°
2026-04-22 11:17 -40.30313 -69.89262 9146 ft 165 kts 51°
2026-04-22 11:18 -40.29622 -69.88069 9150 ft 165 kts 51°
2026-04-22 11:18 -40.28930 -69.86872 9145 ft 164 kts 51°
2026-04-22 11:18 -40.28236 -69.85674 9148 ft 166 kts 51°
2026-04-22 11:18 -40.27536 -69.84465 9150 ft 167 kts 51°
2026-04-22 11:19 -40.26838 -69.83262 9148 ft 166 kts 51°
2026-04-22 11:19 -40.26139 -69.82055 9146 ft 166 kts 51°
2026-04-22 11:19 -40.25438 -69.80848 9154 ft 167 kts 51°
2026-04-22 11:19 -40.24735 -69.79636 9149 ft 167 kts 51°
2026-04-22 11:20 -40.24035 -69.78430 9150 ft 166 kts 51°
2026-04-22 11:20 -40.23334 -69.77223 9144 ft 167 kts 51°
2026-04-22 11:20 -40.22631 -69.76010 9150 ft 168 kts 51°
2026-04-22 11:20 -40.21922 -69.74791 9153 ft 168 kts 51°
2026-04-22 11:21 -40.21209 -69.73567 9151 ft 168 kts 51°
2026-04-22 11:21 -40.20501 -69.72349 9149 ft 168 kts 51°
2026-04-22 11:21 -40.19804 -69.71151 9155 ft 168 kts 51°
2026-04-22 11:21 -40.19096 -69.69935 9156 ft 168 kts 51°
2026-04-22 11:22 -40.18384 -69.68712 9154 ft 169 kts 51°
2026-04-22 11:22 -40.17673 -69.67491 9154 ft 169 kts 51°
2026-04-22 11:22 -40.16959 -69.66267 9156 ft 169 kts 51°
2026-04-22 11:22 -40.16246 -69.65043 9156 ft 169 kts 51°
2026-04-22 11:23 -40.15535 -69.63824 9154 ft 169 kts 51°
2026-04-22 11:23 -40.14824 -69.62606 9157 ft 169 kts 51°
2026-04-22 11:23 -40.14112 -69.61385 9157 ft 169 kts 51°
2026-04-22 11:23 -40.13398 -69.60163 9155 ft 169 kts 51°
2026-04-22 11:24 -40.12685 -69.58942 9155 ft 169 kts 51°
2026-04-22 11:24 -40.11969 -69.57717 9157 ft 169 kts 51°
2026-04-22 11:24 -40.11255 -69.56495 9159 ft 169 kts 50°
2026-04-22 11:24 -40.10540 -69.55273 9159 ft 169 kts 51°
2026-04-22 11:25 -40.09825 -69.54050 9155 ft 169 kts 51°
2026-04-22 11:25 -40.09112 -69.52832 9159 ft 169 kts 51°
2026-04-22 11:25 -40.08408 -69.51631 9158 ft 169 kts 50°
2026-04-22 11:25 -40.07684 -69.50392 9157 ft 169 kts 51°
2026-04-22 11:26 -40.06968 -69.49172 9163 ft 170 kts 51°
2026-04-22 11:26 -40.06259 -69.47962 9161 ft 170 kts 50°
2026-04-22 11:26 -40.05531 -69.46721 9162 ft 171 kts 50°
2026-04-22 11:26 -40.04816 -69.45502 9162 ft 171 kts 50°
2026-04-22 11:27 -40.04093 -69.44269 9161 ft 171 kts 50°
2026-04-22 11:27 -40.03367 -69.43033 9163 ft 171 kts 50°
2026-04-22 11:27 -40.02640 -69.41796 9166 ft 172 kts 50°
2026-04-22 11:27 -40.01913 -69.40556 9165 ft 172 kts 50°
2026-04-22 11:28 -40.01184 -69.39316 9163 ft 172 kts 50°
2026-04-22 11:28 -40.00456 -69.38080 9163 ft 171 kts 50°
2026-04-22 11:28 -39.99731 -69.36845 9166 ft 171 kts 50°
2026-04-22 11:28 -39.99002 -69.35607 9166 ft 172 kts 50°
2026-04-22 11:29 -39.98273 -69.34368 9171 ft 172 kts 50°
2026-04-22 11:29 -39.97541 -69.33126 9167 ft 172 kts 50°
2026-04-22 11:29 -39.96812 -69.31890 9168 ft 172 kts 50°
2026-04-22 11:29 -39.96083 -69.30651 9164 ft 172 kts 50°
2026-04-22 11:30 -39.95356 -69.29419 9168 ft 172 kts 50°
2026-04-22 11:30 -39.94627 -69.28183 9167 ft 172 kts 50°
2026-04-22 11:30 -39.93901 -69.26951 9167 ft 172 kts 50°
2026-04-22 11:30 -39.93171 -69.25715 9168 ft 172 kts 50°
2026-04-22 11:31 -39.92441 -69.24479 9169 ft 173 kts 50°
2026-04-22 11:31 -39.91706 -69.23236 9170 ft 173 kts 50°
2026-04-22 11:31 -39.90970 -69.21990 9169 ft 173 kts 50°
2026-04-22 11:31 -39.90234 -69.20747 9167 ft 173 kts 50°
2026-04-22 11:32 -39.89501 -69.19506 9168 ft 173 kts 50°
2026-04-22 11:32 -39.88776 -69.18280 9168 ft 173 kts 50°
2026-04-22 11:32 -39.88032 -69.17023 9173 ft 173 kts 50°
2026-04-22 11:32 -39.87305 -69.15796 9174 ft 174 kts 50°
2026-04-22 11:33 -39.86564 -69.14545 9172 ft 175 kts 50°
2026-04-22 11:33 -39.85820 -69.13290 9174 ft 175 kts 50°
2026-04-22 11:33 -39.85076 -69.12035 9173 ft 175 kts 50°
2026-04-22 11:33 -39.84333 -69.10782 9172 ft 175 kts 50°
2026-04-22 11:34 -39.83593 -69.09535 9170 ft 174 kts 50°
2026-04-22 11:34 -39.82853 -69.08287 9170 ft 174 kts 50°
2026-04-22 11:34 -39.82114 -69.07043 9173 ft 174 kts 50°
2026-04-22 11:34 -39.81374 -69.05796 9171 ft 174 kts 50°
2026-04-22 11:35 -39.80632 -69.04548 9171 ft 175 kts 50°
2026-04-22 11:35 -39.79889 -69.03297 9173 ft 174 kts 50°
2026-04-22 11:35 -39.79147 -69.02050 9172 ft 174 kts 50°
2026-04-22 11:35 -39.78407 -69.00806 9174 ft 174 kts 50°
2026-04-22 11:36 -39.77664 -68.99558 9167 ft 175 kts 50°
2026-04-22 11:36 -39.76918 -68.98306 9174 ft 175 kts 50°
2026-04-22 11:36 -39.76184 -68.97074 9169 ft 175 kts 50°
2026-04-22 11:36 -39.75437 -68.95820 9169 ft 175 kts 50°
2026-04-22 11:37 -39.74692 -68.94571 9167 ft 175 kts 50°
2026-04-22 11:37 -39.73947 -68.93321 9169 ft 175 kts 50°
2026-04-22 11:37 -39.73201 -68.92071 9168 ft 175 kts 50°
2026-04-22 11:37 -39.72452 -68.90816 9170 ft 176 kts 50°
2026-04-22 11:38 -39.71701 -68.89558 9168 ft 176 kts 50°
2026-04-22 11:38 -39.70949 -68.88299 9169 ft 176 kts 50°
2026-04-22 11:38 -39.69448 -68.85789 9170 ft 176 kts 50°
2026-04-22 11:39 -39.68696 -68.84531 9165 ft 176 kts 50°
2026-04-22 11:39 -39.67943 -68.83272 9167 ft 176 kts 50°
2026-04-22 11:39 -39.67203 -68.82036 9167 ft 176 kts 50°
2026-04-22 11:39 -39.66451 -68.80780 9165 ft 177 kts 50°
2026-04-22 11:40 -39.65695 -68.79519 9166 ft 177 kts 50°
2026-04-22 11:40 -39.64941 -68.78260 9165 ft 177 kts 50°
2026-04-22 11:40 -39.64182 -68.76995 9164 ft 178 kts 50°
2026-04-22 11:40 -39.63423 -68.75729 9165 ft 178 kts 50°
2026-04-22 11:41 -39.62661 -68.74459 9164 ft 178 kts 50°
2026-04-22 11:41 -39.61900 -68.73190 9165 ft 178 kts 50°
2026-04-22 11:41 -39.61139 -68.71920 9161 ft 179 kts 50°
2026-04-22 11:41 -39.60373 -68.70646 9159 ft 179 kts 50°
2026-04-22 11:42 -39.59610 -68.69375 9158 ft 179 kts 50°
2026-04-22 11:42 -39.58842 -68.68098 9159 ft 179 kts 50°
2026-04-22 11:42 -39.58072 -68.66818 9160 ft 180 kts 50°
2026-04-22 11:42 -39.57301 -68.65537 9160 ft 180 kts 50°
2026-04-22 11:43 -39.56531 -68.64257 9158 ft 180 kts 50°
2026-04-22 11:43 -39.55768 -68.62989 9156 ft 180 kts 50°
2026-04-22 11:43 -39.54984 -68.61688 9157 ft 181 kts 50°
2026-04-22 11:43 -39.54218 -68.60418 9155 ft 181 kts 50°
2026-04-22 11:44 -39.53441 -68.59130 9155 ft 182 kts 50°
2026-04-22 11:44 -39.52662 -68.57838 9153 ft 182 kts 50°
2026-04-22 11:44 -39.51885 -68.56550 9152 ft 182 kts 50°
2026-04-22 11:44 -39.51103 -68.55255 9150 ft 182 kts 50°
2026-04-22 11:45 -39.50323 -68.53963 9156 ft 182 kts 50°
2026-04-22 11:45 -39.49540 -68.52667 9155 ft 183 kts 50°
2026-04-22 11:45 -39.48754 -68.51366 9152 ft 183 kts 50°
2026-04-22 11:45 -39.47974 -68.50075 9153 ft 182 kts 50°
2026-04-22 11:46 -39.47194 -68.48787 9152 ft 181 kts 50°
2026-04-22 11:46 -39.46417 -68.47503 9149 ft 181 kts 50°
2026-04-22 11:46 -39.45638 -68.46217 9148 ft 181 kts 50°
2026-04-22 11:46 -39.45122 -68.45365 9151 ft 181 kts 50°
2026-04-22 11:47 -39.44344 -68.44080 9150 ft 181 kts 50°
2026-04-22 11:47 -39.43315 -68.42382 9152 ft 181 kts 50°
2026-04-22 11:47 -39.42535 -68.41096 9149 ft 182 kts 50°
2026-04-22 11:47 -39.41757 -68.39813 9152 ft 181 kts 50°
2026-04-22 11:48 -39.40978 -68.38529 9151 ft 181 kts 50°
2026-04-22 11:48 -39.40452 -68.37663 9150 ft 182 kts 50°
2026-04-22 11:48 -39.39418 -68.35960 9148 ft 182 kts 50°
2026-04-22 11:48 -39.38890 -68.35091 9148 ft 182 kts 50°
2026-04-22 11:49 -39.38110 -68.33808 9145 ft 182 kts 50°
2026-04-22 11:49 -39.37337 -68.32536 9144 ft 182 kts 50°
2026-04-22 11:49 -39.36555 -68.31250 9148 ft 182 kts 50°
2026-04-22 11:49 -39.35771 -68.29962 9151 ft 182 kts 50°
2026-04-22 11:50 -39.34988 -68.28675 9150 ft 182 kts 50°
2026-04-22 11:50 -39.34203 -68.27386 9147 ft 183 kts 50°
2026-04-22 11:50 -39.33415 -68.26093 9149 ft 183 kts 50°
2026-04-22 11:50 -39.32626 -68.24797 9145 ft 183 kts 50°
2026-04-22 11:51 -39.31840 -68.23509 9149 ft 183 kts 50°
2026-04-22 11:51 -39.31053 -68.22218 9148 ft 183 kts 49°
2026-04-22 11:51 -39.30261 -68.20921 9146 ft 184 kts 50°
2026-04-22 11:51 -39.29470 -68.19625 9160 ft 184 kts 49°
2026-04-22 11:52 -39.28674 -68.18322 9162 ft 186 kts 49°
2026-04-22 11:52 -39.27867 -68.17001 9161 ft 188 kts 49°
2026-04-22 11:52 -39.27058 -68.15678 9157 ft 188 kts 49°
2026-04-22 11:52 -39.26244 -68.14348 9155 ft 189 kts 49°
2026-04-22 11:53 -39.25432 -68.13019 9153 ft 189 kts 49°
2026-04-22 11:53 -39.24621 -68.11692 9151 ft 187 kts 49°
2026-04-22 11:53 -39.23813 -68.10373 9150 ft 187 kts 49°
2026-04-22 11:53 -39.23007 -68.09057 9147 ft 187 kts 49°
2026-04-22 11:54 -39.22211 -68.07757 9142 ft 187 kts 49°
2026-04-22 11:54 -39.21404 -68.06443 9140 ft 187 kts 49°
2026-04-22 11:54 -39.20598 -68.05129 9141 ft 187 kts 49°
2026-04-22 11:54 -39.19789 -68.03809 9137 ft 187 kts 49°
2026-04-22 11:55 -39.18982 -68.02493 9136 ft 187 kts 49°
2026-04-22 11:55 -39.18174 -68.01178 9136 ft 187 kts 49°
2026-04-22 11:55 -39.17365 -67.99860 9138 ft 187 kts 49°
2026-04-22 11:55 -39.16563 -67.98554 9142 ft 186 kts 49°
2026-04-22 11:56 -39.15758 -67.97245 9138 ft 186 kts 49°
2026-04-22 11:56 -39.14957 -67.95943 9141 ft 186 kts 49°
2026-04-22 11:56 -39.14152 -67.94635 9141 ft 186 kts 50°
2026-04-22 11:56 -39.13350 -67.93331 9140 ft 186 kts 50°
2026-04-22 11:57 -39.12547 -67.92027 9144 ft 185 kts 49°
2026-04-22 11:57 -39.11745 -67.90725 9142 ft 185 kts 50°
2026-04-22 11:57 -39.10947 -67.89429 9142 ft 185 kts 50°
2026-04-22 11:57 -39.10148 -67.88133 9143 ft 184 kts 49°
2026-04-22 11:58 -39.09353 -67.86847 9148 ft 184 kts 49°
2026-04-22 11:58 -39.08560 -67.85560 9143 ft 183 kts 49°
2026-04-22 11:58 -39.07766 -67.84274 9149 ft 184 kts 49°
2026-04-22 11:58 -39.06979 -67.83000 9160 ft 184 kts 49°
2026-04-22 11:59 -39.06173 -67.81694 9149 ft 184 kts 49°
2026-04-22 11:59 -39.05386 -67.80421 9144 ft 184 kts 49°
2026-04-22 11:59 -39.04590 -67.79135 9149 ft 184 kts 49°
2026-04-22 11:59 -39.03793 -67.77846 9155 ft 184 kts 49°
2026-04-22 12:00 -39.02995 -67.76556 9152 ft 184 kts 49°
2026-04-22 12:00 -39.02198 -67.75270 9151 ft 184 kts 49°
2026-04-22 12:00 -39.01400 -67.73981 9149 ft 184 kts 49°
2026-04-22 12:00 -39.00605 -67.72696 9159 ft 184 kts 49°
2026-04-22 12:01 -38.99809 -67.71412 9164 ft 183 kts 49°
2026-04-22 12:01 -38.99015 -67.70132 9162 ft 183 kts 49°
2026-04-22 12:01 -38.98220 -67.68850 9159 ft 183 kts 49°
2026-04-22 12:01 -38.97426 -67.67570 9166 ft 183 kts 49°
2026-04-22 12:02 -38.96631 -67.66291 9160 ft 183 kts 49°
2026-04-22 12:02 -38.95838 -67.65014 9169 ft 182 kts 49°
2026-04-22 12:02 -38.95051 -67.63746 9166 ft 181 kts 49°
2026-04-22 12:02 -38.94264 -67.62480 9170 ft 181 kts 49°
2026-04-22 12:03 -38.93478 -67.61214 9162 ft 182 kts 49°
2026-04-22 12:03 -38.92689 -67.59946 9157 ft 181 kts 49°
2026-04-22 12:03 -38.91901 -67.58680 9165 ft 181 kts 49°
2026-04-22 12:03 -38.91112 -67.57413 9164 ft 181 kts 49°
2026-04-22 12:04 -38.90336 -67.56166 9163 ft 181 kts 49°
2026-04-22 12:04 -38.89540 -67.54888 9168 ft 181 kts 49°
2026-04-22 12:04 -38.88768 -67.53650 9166 ft 180 kts 49°
2026-04-22 12:04 -38.87985 -67.52394 9172 ft 179 kts 49°
2026-04-22 12:05 -38.87206 -67.51144 9165 ft 179 kts 49°
2026-04-22 12:05 -38.86431 -67.49903 9165 ft 178 kts 49°
2026-04-22 12:05 -38.85656 -67.48661 9172 ft 178 kts 49°
2026-04-22 12:05 -38.84881 -67.47420 9165 ft 178 kts 49°
2026-04-22 12:06 -38.84105 -67.46178 9172 ft 178 kts 49°
2026-04-22 12:06 -38.83329 -67.44936 9168 ft 178 kts 49°
2026-04-22 12:06 -38.82553 -67.43695 9169 ft 178 kts 49°
2026-04-22 12:06 -38.81779 -67.42457 9163 ft 178 kts 49°
2026-04-22 12:07 -38.81006 -67.41221 9175 ft 177 kts 49°
2026-04-22 12:07 -38.80234 -67.39988 9165 ft 177 kts 49°
2026-04-22 12:07 -38.79463 -67.38756 9159 ft 177 kts 49°
2026-04-22 12:07 -38.78690 -67.37522 9160 ft 177 kts 49°
2026-04-22 12:08 -38.77920 -67.36292 9164 ft 177 kts 49°
2026-04-22 12:08 -38.77147 -67.35059 9160 ft 177 kts 49°
2026-04-22 12:08 -38.76373 -67.33826 9159 ft 177 kts 49°
2026-04-22 12:08 -38.75601 -67.32595 9160 ft 177 kts 49°
2026-04-22 12:09 -38.74828 -67.31363 9160 ft 177 kts 49°
2026-04-22 12:09 -38.74055 -67.30132 9161 ft 178 kts 50°
2026-04-22 12:09 -38.73283 -67.28902 9161 ft 178 kts 50°
2026-04-22 12:09 -38.72505 -67.27663 9167 ft 178 kts 49°
2026-04-22 12:10 -38.71731 -67.26432 9159 ft 178 kts 50°
2026-04-22 12:10 -38.70956 -67.25200 9165 ft 177 kts 50°
2026-04-22 12:10 -38.70184 -67.23972 9158 ft 177 kts 49°
2026-04-22 12:10 -38.69411 -67.22744 9159 ft 177 kts 50°
2026-04-22 12:11 -38.68651 -67.21537 9161 ft 177 kts 50°
2026-04-22 12:11 -38.67870 -67.20298 9153 ft 176 kts 50°
2026-04-22 12:11 -38.67099 -67.19073 9164 ft 176 kts 50°
2026-04-22 12:11 -38.66341 -67.17869 9151 ft 177 kts 50°
2026-04-22 12:12 -38.65572 -67.16649 9160 ft 176 kts 50°
2026-04-22 12:12 -38.64804 -67.15431 9151 ft 176 kts 50°
2026-04-22 12:12 -38.64037 -67.14214 9155 ft 175 kts 50°
2026-04-22 12:12 -38.63271 -67.13001 9153 ft 175 kts 50°
2026-04-22 12:13 -38.62504 -67.11786 9161 ft 176 kts 50°
2026-04-22 12:13 -38.61736 -67.10571 9157 ft 176 kts 50°
2026-04-22 12:13 -38.60967 -67.09353 9155 ft 175 kts 50°
2026-04-22 12:13 -38.60201 -67.08141 9162 ft 175 kts 50°
2026-04-22 12:14 -38.59435 -67.06930 9156 ft 175 kts 50°
2026-04-22 12:14 -38.58668 -67.05718 9157 ft 175 kts 50°
2026-04-22 12:14 -38.57901 -67.04505 9164 ft 176 kts 50°
2026-04-22 12:14 -38.57132 -67.03290 9156 ft 175 kts 50°
2026-04-22 12:15 -38.56365 -67.02080 9157 ft 175 kts 50°
2026-04-22 12:15 -38.55596 -67.00865 9162 ft 175 kts 50°
2026-04-22 12:15 -38.54838 -66.99669 9158 ft 175 kts 50°
2026-04-22 12:15 -38.54069 -66.98457 9157 ft 176 kts 50°
2026-04-22 12:16 -38.53300 -66.97243 9159 ft 176 kts 50°
2026-04-22 12:16 -38.52532 -66.96033 9161 ft 176 kts 50°
2026-04-22 12:16 -38.51763 -66.94821 9159 ft 175 kts 50°
2026-04-22 12:16 -38.50995 -66.93611 9159 ft 175 kts 50°
2026-04-22 12:17 -38.50225 -66.92400 9156 ft 176 kts 50°
2026-04-22 12:17 -38.49457 -66.91190 9158 ft 176 kts 50°
2026-04-22 12:17 -38.48685 -66.89976 9160 ft 175 kts 50°
2026-04-22 12:17 -38.47916 -66.88767 9154 ft 176 kts 50°
2026-04-22 12:18 -38.47148 -66.87560 9158 ft 176 kts 51°
2026-04-22 12:18 -38.46376 -66.86346 9156 ft 176 kts 50°
2026-04-22 12:18 -38.45607 -66.85139 9156 ft 176 kts 50°
2026-04-22 12:18 -38.44835 -66.83926 9152 ft 176 kts 50°
2026-04-22 12:19 -38.44063 -66.82715 9164 ft 176 kts 51°
2026-04-22 12:19 -38.43292 -66.81506 9159 ft 176 kts 50°
2026-04-22 12:19 -38.42531 -66.80311 9158 ft 176 kts 51°
2026-04-22 12:19 -38.41757 -66.79098 9154 ft 176 kts 51°
2026-04-22 12:20 -38.40986 -66.77889 9158 ft 176 kts 51°
2026-04-22 12:20 -38.40210 -66.76673 9156 ft 176 kts 51°
2026-04-22 12:20 -38.39437 -66.75464 9160 ft 176 kts 51°
2026-04-22 12:20 -38.38664 -66.74252 9157 ft 176 kts 51°
2026-04-22 12:21 -38.37890 -66.73042 9162 ft 176 kts 51°
2026-04-22 12:21 -38.37118 -66.71834 9161 ft 176 kts 51°
2026-04-22 12:21 -38.36345 -66.70624 9163 ft 176 kts 50°
2026-04-22 12:21 -38.35571 -66.69416 9162 ft 176 kts 51°
2026-04-22 12:22 -38.34809 -66.68225 9164 ft 176 kts 50°
2026-04-22 12:22 -38.34038 -66.67019 9162 ft 176 kts 50°
2026-04-22 12:22 -38.33386 -66.65706 9164 ft 176 kts 64°
2026-04-22 12:22 -38.32821 -66.64324 9163 ft 176 kts 64°
2026-04-22 12:23 -38.32243 -66.62945 9161 ft 176 kts 63°
2026-04-22 12:23 -38.31665 -66.61574 9163 ft 176 kts 63°
2026-04-22 12:23 -38.31085 -66.60196 9159 ft 176 kts 63°
2026-04-22 12:23 -38.30505 -66.58818 9160 ft 177 kts 63°
2026-04-22 12:24 -38.29925 -66.57439 9159 ft 177 kts 63°
2026-04-22 12:24 -38.29343 -66.56058 9162 ft 177 kts 63°
2026-04-22 12:24 -38.28760 -66.54674 9161 ft 177 kts 63°
2026-04-22 12:24 -38.28180 -66.53297 9162 ft 176 kts 63°
2026-04-22 12:25 -38.27600 -66.51923 9160 ft 176 kts 63°
2026-04-22 12:25 -38.27019 -66.50546 9157 ft 177 kts 63°
2026-04-22 12:25 -38.26445 -66.49185 9161 ft 177 kts 63°
2026-04-22 12:25 -38.25866 -66.47813 9160 ft 176 kts 63°
2026-04-22 12:26 -38.25285 -66.46438 9161 ft 177 kts 63°
2026-04-22 12:26 -38.24703 -66.45060 9158 ft 177 kts 63°
2026-04-22 12:26 -38.24120 -66.43682 9160 ft 177 kts 63°
2026-04-22 12:26 -38.23539 -66.42308 9159 ft 177 kts 63°
2026-04-22 12:27 -38.22957 -66.40933 9163 ft 176 kts 63°
2026-04-22 12:27 -38.22375 -66.39558 9159 ft 176 kts 63°
2026-04-22 12:27 -38.21796 -66.38189 9162 ft 176 kts 63°
2026-04-22 12:27 -38.21212 -66.36812 9162 ft 177 kts 63°
2026-04-22 12:28 -38.20629 -66.35437 9160 ft 177 kts 63°
2026-04-22 12:28 -38.20044 -66.34057 9163 ft 177 kts 63°
2026-04-22 12:28 -38.19458 -66.32676 9162 ft 178 kts 62°
2026-04-22 12:28 -38.18873 -66.31296 9157 ft 177 kts 63°
2026-04-22 12:29 -38.18289 -66.29921 9155 ft 177 kts 62°
2026-04-22 12:29 -38.17703 -66.28540 9155 ft 178 kts 62°
2026-04-22 12:29 -38.17116 -66.27160 9157 ft 177 kts 62°
2026-04-22 12:29 -38.16530 -66.25782 9157 ft 177 kts 62°
2026-04-22 12:30 -38.15357 -66.23025 9160 ft 177 kts 62°
2026-04-22 12:30 -38.14772 -66.21651 9158 ft 177 kts 62°
2026-04-22 12:30 -38.14192 -66.20289 9158 ft 177 kts 62°
2026-04-22 12:31 -38.13606 -66.18914 9161 ft 177 kts 62°
2026-04-22 12:31 -38.13020 -66.17539 9156 ft 177 kts 62°
2026-04-22 12:31 -38.12433 -66.16162 9158 ft 177 kts 62°
2026-04-22 12:31 -38.11844 -66.14782 9156 ft 178 kts 62°
2026-04-22 12:32 -38.11254 -66.13400 9156 ft 178 kts 62°
2026-04-22 12:32 -38.10076 -66.10640 9158 ft 178 kts 62°
2026-04-22 12:32 -38.09486 -66.09261 9156 ft 178 kts 62°
2026-04-22 12:33 -38.08898 -66.07886 9158 ft 177 kts 61°
2026-04-22 12:33 -38.08309 -66.06508 9160 ft 177 kts 61°
2026-04-22 12:33 -38.07720 -66.05133 9158 ft 178 kts 61°
2026-04-22 12:33 -38.07131 -66.03756 9158 ft 178 kts 61°
2026-04-22 12:34 -38.06738 -66.02839 9160 ft 178 kts 61°
2026-04-22 12:34 -38.05947 -66.00993 9157 ft 178 kts 61°
2026-04-22 12:34 -38.05554 -66.00075 9158 ft 178 kts 61°
2026-04-22 12:34 -38.04960 -65.98690 9160 ft 178 kts 61°
2026-04-22 12:35 -38.04367 -65.97308 9156 ft 179 kts 61°
2026-04-22 12:35 -38.03771 -65.95920 9158 ft 179 kts 60°
2026-04-22 12:35 -38.03176 -65.94534 9160 ft 179 kts 60°
2026-04-22 12:35 -38.02578 -65.93142 9155 ft 180 kts 60°
2026-04-22 12:36 -38.01990 -65.91774 9159 ft 179 kts 60°
2026-04-22 12:36 -38.01392 -65.90383 9154 ft 179 kts 60°
2026-04-22 12:36 -38.00798 -65.89002 9157 ft 179 kts 60°
2026-04-22 12:36 -38.00200 -65.87613 9158 ft 179 kts 60°
2026-04-22 12:37 -37.99603 -65.86226 9156 ft 179 kts 60°
2026-04-22 12:37 -37.99007 -65.84842 9158 ft 179 kts 60°
2026-04-22 12:37 -37.98408 -65.83451 9160 ft 179 kts 60°
2026-04-22 12:37 -37.97808 -65.82060 9157 ft 180 kts 59°
2026-04-22 12:38 -37.97207 -65.80666 9160 ft 180 kts 60°
2026-04-22 12:38 -37.96607 -65.79274 9156 ft 180 kts 60°
2026-04-22 12:38 -37.96004 -65.77878 9158 ft 181 kts 59°
2026-04-22 12:38 -37.95401 -65.76481 9158 ft 180 kts 59°
2026-04-22 12:39 -37.94796 -65.75083 9159 ft 181 kts 59°
2026-04-22 12:39 -37.93586 -65.72283 9162 ft 181 kts 59°
2026-04-22 12:39 -37.92981 -65.70883 9160 ft 182 kts 59°
2026-04-22 12:40 -37.92373 -65.69479 9159 ft 181 kts 59°
2026-04-22 12:40 -37.91764 -65.68073 9162 ft 182 kts 59°
2026-04-22 12:40 -37.91163 -65.66685 9157 ft 182 kts 58°
2026-04-22 12:40 -37.90554 -65.65280 9160 ft 182 kts 59°
2026-04-22 12:41 -37.89944 -65.63872 9160 ft 182 kts 59°
2026-04-22 12:41 -37.89333 -65.62463 9165 ft 182 kts 58°
2026-04-22 12:41 -37.88724 -65.61058 9163 ft 182 kts 58°
2026-04-22 12:41 -37.88115 -65.59656 9159 ft 182 kts 58°
2026-04-22 12:42 -37.87506 -65.58255 9163 ft 182 kts 58°
2026-04-22 12:42 -37.86895 -65.56849 9161 ft 182 kts 58°
2026-04-22 12:42 -37.86285 -65.55444 9162 ft 182 kts 58°
2026-04-22 12:42 -37.85677 -65.54046 9162 ft 182 kts 58°
2026-04-22 12:43 -37.85069 -65.52649 9159 ft 182 kts 58°
2026-04-22 12:43 -37.84459 -65.51247 9158 ft 182 kts 58°
2026-04-22 12:43 -37.83854 -65.49859 9160 ft 182 kts 58°
2026-04-22 12:43 -37.83235 -65.48436 9161 ft 182 kts 58°
2026-04-22 12:44 -37.82623 -65.47033 9161 ft 182 kts 58°
2026-04-22 12:44 -37.82011 -65.45629 9166 ft 182 kts 58°
2026-04-22 12:44 -37.81408 -65.44247 9164 ft 183 kts 57°
2026-04-22 12:44 -37.80793 -65.42838 9164 ft 182 kts 57°
2026-04-22 12:45 -37.80181 -65.41435 9162 ft 182 kts 57°
2026-04-22 12:45 -37.79568 -65.40033 9163 ft 183 kts 57°
2026-04-22 12:45 -37.78953 -65.38626 9163 ft 183 kts 57°
2026-04-22 12:45 -37.78337 -65.37215 9165 ft 183 kts 57°
2026-04-22 12:46 -37.77721 -65.35806 9161 ft 183 kts 57°
2026-04-22 12:46 -37.77104 -65.34397 9163 ft 183 kts 57°
2026-04-22 12:46 -37.76488 -65.32989 9165 ft 183 kts 57°
2026-04-22 12:46 -37.75871 -65.31580 9164 ft 183 kts 57°
2026-04-22 12:47 -37.75253 -65.30171 9165 ft 183 kts 57°
2026-04-22 12:47 -37.74633 -65.28754 9165 ft 184 kts 57°
2026-04-22 12:47 -37.74014 -65.27345 9165 ft 184 kts 57°
2026-04-22 12:47 -37.73395 -65.25932 9166 ft 184 kts 57°
2026-04-22 12:48 -37.72776 -65.24521 9161 ft 184 kts 57°
2026-04-22 12:48 -37.72156 -65.23111 9164 ft 184 kts 57°
2026-04-22 12:48 -37.71535 -65.21697 9159 ft 184 kts 57°
2026-04-22 12:48 -37.70914 -65.20284 9160 ft 184 kts 57°
2026-04-22 12:49 -37.70303 -65.18893 9159 ft 184 kts 57°
2026-04-22 12:49 -37.69682 -65.17482 9160 ft 184 kts 57°
2026-04-22 12:49 -37.69062 -65.16072 9160 ft 184 kts 57°
2026-04-22 12:49 -37.68432 -65.14641 9161 ft 184 kts 57°
2026-04-22 12:50 -37.67820 -65.13251 9159 ft 184 kts 57°
2026-04-22 12:50 -37.67198 -65.11841 9159 ft 184 kts 57°
2026-04-22 12:50 -37.66575 -65.10427 9160 ft 184 kts 57°
2026-04-22 12:50 -37.65956 -65.09022 9161 ft 183 kts 57°
2026-04-22 12:51 -37.65334 -65.07614 9162 ft 184 kts 57°
2026-04-22 12:51 -37.64711 -65.06200 9158 ft 184 kts 57°
2026-04-22 12:51 -37.64090 -65.04796 9161 ft 184 kts 57°
2026-04-22 12:51 -37.63469 -65.03389 9161 ft 183 kts 56°
2026-04-22 12:52 -37.62847 -65.01981 9161 ft 183 kts 57°
2026-04-22 12:52 -37.62225 -65.00575 9163 ft 183 kts 57°
2026-04-22 12:52 -37.61605 -64.99174 9154 ft 184 kts 57°
2026-04-22 12:52 -37.60981 -64.97764 9157 ft 184 kts 56°
2026-04-22 12:53 -37.60356 -64.96352 9158 ft 184 kts 57°
2026-04-22 12:53 -37.59741 -64.94962 9158 ft 183 kts 57°
2026-04-22 12:53 -37.59120 -64.93560 9160 ft 183 kts 57°
2026-04-22 12:53 -37.58498 -64.92158 9161 ft 183 kts 57°
2026-04-22 12:54 -37.57877 -64.90758 9162 ft 183 kts 57°
2026-04-22 12:54 -37.57256 -64.89358 9158 ft 183 kts 56°
2026-04-22 12:54 -37.56633 -64.87955 9163 ft 183 kts 56°
2026-04-22 12:54 -37.56011 -64.86554 9158 ft 183 kts 56°
2026-04-22 12:55 -37.55388 -64.85152 9160 ft 183 kts 56°
2026-04-22 12:55 -37.54770 -64.83760 9160 ft 182 kts 56°
2026-04-22 12:55 -37.54148 -64.82362 9158 ft 182 kts 57°
2026-04-22 12:55 -37.53529 -64.80970 9157 ft 182 kts 57°
2026-04-22 12:56 -37.52910 -64.79579 9160 ft 182 kts 57°
2026-04-22 12:56 -37.52292 -64.78191 9157 ft 181 kts 56°
2026-04-22 12:56 -37.51675 -64.76807 9160 ft 181 kts 56°
2026-04-22 12:56 -37.51059 -64.75424 9157 ft 182 kts 57°
2026-04-22 12:57 -37.50442 -64.74039 9154 ft 181 kts 56°
2026-04-22 12:57 -37.49824 -64.72654 9159 ft 181 kts 57°
2026-04-22 12:57 -37.49210 -64.71278 9155 ft 180 kts 56°
2026-04-22 12:57 -37.48597 -64.69906 9154 ft 180 kts 56°
2026-04-22 12:58 -37.47985 -64.68536 9157 ft 180 kts 56°
2026-04-22 12:58 -37.47373 -64.67164 9155 ft 180 kts 56°
2026-04-22 12:58 -37.46760 -64.65794 9156 ft 180 kts 56°
2026-04-22 12:58 -37.46147 -64.64422 9152 ft 180 kts 56°
2026-04-22 12:59 -37.45539 -64.63063 9155 ft 181 kts 56°
2026-04-22 12:59 -37.44915 -64.61668 9154 ft 180 kts 56°
2026-04-22 12:59 -37.44302 -64.60300 9159 ft 179 kts 56°
2026-04-22 12:59 -37.43699 -64.58952 9164 ft 179 kts 56°
2026-04-22 13:00 -37.43081 -64.57574 9172 ft 179 kts 56°
2026-04-22 13:00 -37.42477 -64.56227 9170 ft 179 kts 57°
2026-04-22 13:00 -37.41866 -64.54865 9170 ft 179 kts 56°
2026-04-22 13:00 -37.41255 -64.53502 9171 ft 179 kts 56°
2026-04-22 13:01 -37.40640 -64.52132 9166 ft 179 kts 56°
2026-04-22 13:01 -37.40026 -64.50765 9167 ft 180 kts 56°
2026-04-22 13:01 -37.39410 -64.49392 9163 ft 180 kts 56°
2026-04-22 13:01 -37.38793 -64.48021 9165 ft 180 kts 57°
2026-04-22 13:02 -37.38177 -64.46649 9160 ft 180 kts 57°
2026-04-22 13:02 -37.37560 -64.45277 9160 ft 180 kts 57°
2026-04-22 13:02 -37.36942 -64.43904 9157 ft 180 kts 57°
2026-04-22 13:02 -37.36326 -64.42535 9159 ft 180 kts 56°
2026-04-22 13:03 -37.35709 -64.41165 9151 ft 180 kts 56°
2026-04-22 13:03 -37.35092 -64.39796 9158 ft 180 kts 56°
2026-04-22 13:03 -37.34475 -64.38432 9152 ft 179 kts 56°
2026-04-22 13:03 -37.33652 -64.37330 9133 ft 167 kts 23°
2026-04-22 13:04 -37.32616 -64.36976 9147 ft 151 kts 354°
2026-04-22 13:04 -37.31543 -64.36891 9032 ft 159 kts 355°
2026-04-22 13:04 -37.30440 -64.36761 9006 ft 158 kts 356°
2026-04-22 13:04 -37.29350 -64.36620 9008 ft 157 kts 356°
2026-04-22 13:05 -37.28269 -64.36481 9006 ft 156 kts 356°
2026-04-22 13:05 -37.27191 -64.36344 9006 ft 155 kts 356°
2026-04-22 13:05 -37.26118 -64.36207 9009 ft 155 kts 356°
2026-04-22 13:05 -37.25043 -64.36069 9007 ft 155 kts 356°
2026-04-22 13:06 -37.23970 -64.35932 9003 ft 155 kts 356°
2026-04-22 13:06 -37.22899 -64.35796 9003 ft 155 kts 356°
2026-04-22 13:06 -37.21826 -64.35659 8999 ft 155 kts 356°
2026-04-22 13:06 -37.20770 -64.35523 8996 ft 154 kts 356°
2026-04-22 13:07 -37.19699 -64.35387 8993 ft 154 kts 356°
2026-04-22 13:07 -37.18630 -64.35251 8994 ft 154 kts 356°
2026-04-22 13:07 -37.17561 -64.35114 8995 ft 154 kts 356°
2026-04-22 13:07 -37.16489 -64.34978 8993 ft 155 kts 356°
2026-04-22 13:08 -37.15418 -64.34841 8993 ft 155 kts 356°
2026-04-22 13:08 -37.14346 -64.34704 8994 ft 155 kts 356°
2026-04-22 13:08 -37.13274 -64.34567 8998 ft 154 kts 356°
2026-04-22 13:08 -37.12207 -64.34431 9000 ft 154 kts 356°
2026-04-22 13:09 -37.11140 -64.34295 8996 ft 154 kts 356°
2026-04-22 13:09 -37.10078 -64.34160 8995 ft 154 kts 356°
2026-04-22 13:09 -37.09010 -64.34024 8996 ft 154 kts 357°
2026-04-22 13:09 -37.07942 -64.33881 8998 ft 155 kts 357°
2026-04-22 13:10 -37.06874 -64.33749 8989 ft 152 kts 353°
2026-04-22 13:10 -37.05918 -64.34075 8737 ft 135 kts 320°
2026-04-22 13:10 -37.05403 -64.34952 8433 ft 122 kts 284°
2026-04-22 13:10 -37.05506 -64.35967 8135 ft 121 kts 249°
2026-04-22 13:11 -37.05958 -64.36855 7893 ft 119 kts 243°
2026-04-22 13:11 -37.06401 -64.37717 7669 ft 117 kts 243°
2026-04-22 13:11 -37.06842 -64.38565 7442 ft 116 kts 242°
2026-04-22 13:11 -37.07131 -64.39466 7209 ft 115 kts 276°
2026-04-22 13:12 -37.06570 -64.40175 6987 ft 134 kts 337°
2026-04-22 13:12 -37.05610 -64.39922 6775 ft 149 kts 19°
2026-04-22 13:12 -37.04637 -64.39569 6532 ft 144 kts
2026-04-22 13:12 -37.03678 -64.39408 6434 ft 136 kts
2026-04-22 13:13 -37.02754 -64.39231 6328 ft 133 kts
2026-04-22 13:13 -37.01848 -64.39017 6220 ft 131 kts
2026-04-22 13:13 -37.00956 -64.38756 6109 ft 132 kts
2026-04-22 13:13 -37.00064 -64.38485 5964 ft 132 kts
2026-04-22 13:14 -36.99170 -64.38218 5807 ft 132 kts
2026-04-22 13:14 -36.98272 -64.37952 5656 ft 133 kts
2026-04-22 13:14 -36.97370 -64.37686 5508 ft 133 kts
2026-04-22 13:14 -36.96462 -64.37419 5355 ft 134 kts
2026-04-22 13:15 -36.95555 -64.37152 5206 ft 134 kts
2026-04-22 13:15 -36.94649 -64.36885 5054 ft 134 kts
2026-04-22 13:15 -36.93741 -64.36618 4905 ft 135 kts
2026-04-22 13:15 -36.92827 -64.36348 4747 ft 135 kts
2026-04-22 13:16 -36.91915 -64.36080 4595 ft 135 kts
2026-04-22 13:16 -36.91001 -64.35812 4438 ft 135 kts
2026-04-22 13:16 -36.90078 -64.35540 4293 ft 137 kts
2026-04-22 13:16 -36.89150 -64.35268 4139 ft 137 kts
2026-04-22 13:17 -36.88213 -64.34992 3987 ft 140 kts
2026-04-22 13:17 -36.87266 -64.34714 3837 ft 141 kts
2026-04-22 13:17 -36.86318 -64.34436 3692 ft 143 kts
2026-04-22 13:17 -36.85345 -64.34150 3532 ft 144 kts
2026-04-22 13:18 -36.84369 -64.33866 3351 ft 144 kts
2026-04-22 13:18 -36.83373 -64.33648 3161 ft 146 kts
2026-04-22 13:18 -36.82379 -64.33380 2981 ft 147 kts
2026-04-22 13:18 -36.81375 -64.33123 2804 ft 147 kts
2026-04-22 13:19 -36.80385 -64.32874 2626 ft 145 kts
2026-04-22 13:19 -36.79395 -64.32629 2450 ft 145 kts
2026-04-22 13:19 -36.78398 -64.32382 2301 ft 144 kts
2026-04-22 13:19 -36.77453 -64.32145 2292 ft 134 kts
2026-04-22 13:20 -36.76562 -64.31926 2288 ft 128 kts
2026-04-22 13:20 -36.75700 -64.31715 2284 ft 124 kts
2026-04-22 13:20 -36.74867 -64.31509 2283 ft 120 kts
2026-04-22 13:20 -36.74055 -64.31310 2295 ft 117 kts
2026-04-22 13:21 -36.73245 -64.31115 2299 ft 124 kts
2026-04-22 13:21 -36.72360 -64.30901 2309 ft 136 kts
2026-04-22 13:21 -36.71405 -64.30661 2311 ft 143 kts
2026-04-22 13:21 -36.70424 -64.30414 2305 ft 144 kts
2026-04-22 13:22 -36.69440 -64.30169 2309 ft 145 kts
2026-04-22 13:22 -36.68443 -64.29922 2303 ft 147 kts
2026-04-22 13:22 -36.67439 -64.29673 2302 ft 147 kts
2026-04-22 13:22 -36.66428 -64.29423 2301 ft 149 kts
2026-04-22 13:23 -36.65751 -64.29255 2286 ft 148 kts
2026-04-22 13:23 -36.64802 -64.29002 2046 ft 130 kts
2026-04-22 13:23 -36.63980 -64.28783 1875 ft 113 kts
2026-04-22 13:23 -36.63004 -64.28538 1652 ft 104 kts
2026-04-22 13:24 -36.62516 -64.28443 1482 ft 105 kts
2026-04-22 13:24 -36.61818 -64.28314 1307 ft 100 kts
2026-04-22 13:24 -36.61136 -64.28134 1094 ft 101 kts 10°
2026-04-22 13:24 -36.60486 -64.27958 899 ft 90 kts
2026-04-22 13:25 -36.59952 -64.27835 734 ft 74 kts
2026-04-22 13:25 -36.59495 -64.27726 630 ft 56 kts
2026-04-22 13:25 -36.59212 -64.27667 628 ft 29 kts 11°
2026-04-22 13:25 -36.59137 -64.27676 620 ft 6 kts 304°
2026-04-22 13:26 -36.59142 -64.27715 626 ft 8 kts 239°
2026-04-22 13:26 -36.59192 -64.27827 620 ft 19 kts 237°
2026-04-22 13:26 -36.59243 -64.27915 624 ft 0 kts 266°